Charlottetown, Prince Edward Island

4:56 AM ADT on April 22, 2018 (GMT -0300)
Charlottetown

Weather History for CYYG - April, 2012

Change the Weather History Date:

Friday, April 13, 2012

  Actual Average Record
Temperature  
Mean Temperature 37 °F -  
Max Temperature 43 °F 49 °F 60 °F (2006)
Min Temperature 31 °F 33 °F 22 °F (2015)
Degree Days  
Heating Degree Days 28    
Moisture  
Dew Point 27 °F    
Average Humidity 72    
Maximum Humidity 93    
Minimum Humidity 46    
Precipitation  
Precipitation 0.00 in 0.12 in - ()
Sea Level Pressure  
Sea Level Pressure 29.96 in    
Wind  
Wind Speed 9 mph ()    
Max Wind Speed 14 mph    
Max Gust Speed 23 mph    
Visibility 14.8 miles    
Events Snow    
Averages and records for this station are not official NWS values.
T = Trace of Precipitation, MM = Missing Value Source: Averaged Metar Reports

Daily Weather History Graph

Daily Weather History Graph

Search for Another Location

Airport or City:

Astronomy

Apr. 13, 2012 Rise Set
Actual Time 6:28 AM ADT 7:57 PM ADT
Civil Twilight 5:57 AM ADT 8:29 PM ADT
Nautical Twilight 5:19 AM ADT 9:07 PM ADT
Astronomical Twilight 4:38 AM ADT 9:48 PM ADT
Moon 2:34 AM ADT (4/13) 12:18 PM ADT (4/13)
Length of Visible Light 14h 31m
Length of Day
13h 29m
Waning Gibbous, 48% of the Moon is Illuminated
Apr 13
Waning Gibbous
Apr 21
New
Apr 29
First Quarter
May 6
Full
May 12
Last Quarter

Hourly Weather History & Observations

Time (ADT) Temp. Windchill Dew Point Humidity Pressure Visibility Wind Dir Wind Speed Gust Speed Precip Events Conditions
12:00 AM 32.0 °F 23.0 °F 30.2 °F 93% 29.98 in 10.0 mi North 11.5 mph 17.3 mph N/A Snow Light Snow Showers
12:48 AM 32.0 °F 23.0 °F - N/A% - 15.0 mi North 11.5 mph - N/A   Overcast
2:00 AM 32.0 °F 24.2 °F 28.4 °F 87% 29.96 in 15.0 mi North 9.2 mph - N/A   Overcast
3:00 AM 33 °F - 29 °F 77% 29.96 in 15 mi North 12.7 mph - -   Partly Cloudy
3:00 AM 32.0 °F 22.5 °F 28.4 °F 87% 29.96 in 15.0 mi North 12.7 mph 18.4 mph N/A   Overcast
4:00 AM 32.0 °F 23.0 °F 30.2 °F 93% 29.96 in 15.0 mi North 11.5 mph 17.3 mph N/A   Overcast
5:00 AM 32.0 °F 24.2 °F 30.2 °F 93% 29.96 in 15.0 mi North 9.2 mph 20.7 mph N/A   Overcast
6:00 AM 32.0 °F 24.2 °F 28.4 °F 87% 29.96 in 15.0 mi North 9.2 mph - N/A   Overcast
7:00 AM 32.0 °F 22.5 °F 28.4 °F 87% 29.98 in 15.0 mi North 12.7 mph 19.6 mph N/A   Overcast
8:00 AM 32.0 °F 22.1 °F 28.4 °F 87% 29.99 in 15.0 mi North 13.8 mph - N/A   Mostly Cloudy
8:49 AM 33.8 °F 24.3 °F - N/A% - 15.0 mi NNW 13.8 mph 21.9 mph N/A   Mostly Cloudy
9:00 AM 35 °F - 29 °F 71% 29.99 in 15 mi North 11.5 mph - -   Mostly Cloudy
9:00 AM 35.6 °F 27.5 °F 28.4 °F 75% 29.99 in 15.0 mi North 11.5 mph 20.7 mph N/A   Mostly Cloudy
10:00 AM 37.4 °F 29.3 °F 30.2 °F 75% 30.00 in 15.0 mi North 12.7 mph 21.9 mph N/A   Mostly Cloudy
11:00 AM 37.4 °F 29.3 °F 28.4 °F 70% 30.00 in 15.0 mi North 12.7 mph 20.7 mph N/A   Mostly Cloudy
12:00 PM 39.2 °F 32.0 °F 30.2 °F 70% 29.99 in 15.0 mi NNW 11.5 mph 19.6 mph N/A   Mostly Cloudy
1:00 PM 39.2 °F 32.5 °F 28.4 °F 65% 29.99 in 15.0 mi North 10.4 mph 23.0 mph N/A   Mostly Cloudy
2:00 PM 41.0 °F 33.5 °F 28.4 °F 61% 29.98 in 15.0 mi NNE 13.8 mph - N/A   Scattered Clouds
3:00 PM 41 °F - 28 °F 47% 29.97 in 15 mi North 11.5 mph - -   Scattered Clouds
3:00 PM 41.0 °F 34.3 °F 28.4 °F 61% 29.97 in 15.0 mi North 11.5 mph 17.3 mph N/A   Partly Cloudy
4:00 PM 42.8 °F 37.0 °F 23.0 °F 46% 29.95 in 15.0 mi North 10.4 mph - N/A   Partly Cloudy
5:00 PM 41.0 °F 36.4 °F 24.8 °F 53% 29.94 in 15.0 mi NNW 6.9 mph - N/A   Partly Cloudy
6:00 PM 41.0 °F 35.2 °F 24.8 °F 53% 29.93 in 15.0 mi NNE 9.2 mph - N/A   Partly Cloudy
7:00 PM 39.2 °F 35.9 °F 24.8 °F 56% 29.93 in 15.0 mi NNE 4.6 mph - N/A   Partly Cloudy
8:00 PM 33.8 °F 28.6 °F 24.8 °F 70% 29.94 in 15.0 mi East 5.8 mph - N/A   Partly Cloudy
9:00 PM 31 °F - 24 °F 68% 29.94 in 15 mi East 2.3 mph - -   Clear
9:00 PM 32.0 °F - 24.8 °F 75% 29.94 in 15.0 mi Calm Calm - N/A   Partly Cloudy
10:00 PM 32.0 °F 28.7 °F 24.8 °F 75% 29.94 in 15.0 mi SSE 3.5 mph - N/A   Clear
11:00 PM 32.0 °F 27.5 °F 24.8 °F 75% 29.93 in 15.0 mi SSE 4.6 mph - N/A   Clear